Regional Weather Roundup
Issued by NWS Newport/Morehead, NC

Current Version | Previous Version | Graphics & Text | Print | Product List | Glossary On
Versions: 1 2 3 4 5 6 7 8 9 10 11 12 13 14 15 16 17 18 19 20 21 22 23 24 25 26 27 28 29 30 31 32 33 34 35 36 37 38 39 40 41 42 43 44 45 46 47 48 49 50
285 ASUS42 KMHX 071813 RWRMHX WEATHER ROUNDUP FOR EASTERN NORTH CAROLINA NATIONAL WEATHER SERVICE NEWPORT/MOREHEAD CITY NC 100 PM EST SUN FEB 07 2016 NOTE: "FAIR" INDICATES FEW OR NO CLOUDS BELOW 12,000 FEET WITH NO SIGNIFICANT WEATHER AND/OR OBSTRUCTIONS TO VISIBILITY NCZ015>017-031-032-045>047-102-103-071900- NORTH COAST CITY SKY/WX TMP DP RH WIND PRES REMARKS EDENTON LGT RAIN 42 36 79 N15G23 29.88F ELIZABETH CITY LGT RAIN 44 35 70 N28G38 29.86F KITTY HAWK LGT RAIN 46 41 83 N16G24 29.79F MANTEO RAIN 46 42 88 NE25G32 29.80F $$ NCZ045>047-081-094-103-104-071900- CENTRAL COAST CITY SKY/WX TMP DP RH WIND PRES REMARKS FRISCO RAIN 47 46 97 NE15G29 29.73F SWANQUARTER NOT AVBL $$ NCZ095-097-098-100-101-071900- SOUTHERN COAST CITY SKY/WX TMP DP RH WIND PRES REMARKS BEAUFORT LGT RAIN 43 40 89 N28G45 29.70F FOG CEDAR ISLAND NOT AVBL JACKSONVILLE RAIN 36 32 85 N28G35 29.80F FOG PINEY ISLAND LGT SNOW N/A N/A N/A N31G41 29.74F WILMINGTON HVY RAIN 36 31 82 N22G31 29.78F $$ NCZ011>013-027>030-043-044-078>080-089-090>093-098-071900- COASTAL PLAIN CITY SKY/WX TMP DP RH WIND PRES REMARKS AHOSKIE CLOUDY 39 28 63 N13G18 29.96F CLINTON RAIN 34 33 95 N12G18 29.92F ELIZABETHTOWN RAIN 35 34 96 N9 29.91F GOLDSBORO CLOUDY 36 36 100 N14G23 29.89F GREENVILLE LGT RAIN 36 34 93 N10G17 29.95F HAVELOCK LGT RAIN 40 37 89 N22G31 29.78F FOG KENANSVILLE MIX PCPN 34 32 92 N17 29.90F KINSTON LGT SNOW 36 32 87 N15G21 29.91F NEW BERN RAIN 38 34 85 N20G28 29.83F FOG RICHLANDS CLOUDY 36 27 69 N14G26 29.84F ROCKY MOUNT MIX PCPN 37 29 72 N10 29.98F WASHINGTON LGT RAIN 37 32 84 N12G21 29.88F WHITEVILLE RAIN 35 33 91 N13G23 29.88F $$ AMZ130-135-150-152-154-156-158-170-250-252-270-ANZ085-086-088-633-658-670-071900- MARINE OBSERVATIONS STATION/POSITION TIME TEMP WIND PRES WAVE SWELL AIR SEA DIR/SP/G HT/PER HT/PER (UTC) (F) (DEG/KT/KT) (MB) (FT/S) (FT/S) CHESAPEAKE LIGHT 1800 44 30/ 32/ 37 1011.5 64 E VA BEACH 1750 52 53 40/ 29/ 33 1010.1 9/ 6 3/10 DUCK 1700 45 44 20/ 25/ 31 1012.8 2 E DUCK 1711 44 N/A 8/ 7 2/11 OREGON INLET 1700 46 45 10/ 22/ 29 1011.0 13E OREGON INLT 1800 47 N/A 12/ 7 2/11 HATTERAS CG 1700 47 47 20/ 28/ 39 1007.7 DIAMOND BUOY 1750 57 70 30/ 35/ 41 1003.7 12/ 8 2/13 CAPE LOOKOUT NOT AVBL BEAUFORT LAB 1700 42 48 10/ 21/ 31 1006.5 30 SE NEW RVR IN 1708 46 64 1001.6 30 SE NEW RVR IN 1725 63 N/A 13/ 7 3/11 27 SE WRIGHTSVLE NOT AVBL 5 SE WRIGHTSVLE 1708 39 53 10/ 35/ 45 1007.7 225 S CAPE HAT 1750 68 69 220/ 23/ 31 N/A 10/ 6 41 SE CHARLESTON 1750 46 66 330/ 31/ 39 1007.5 10/ 9 5/ 9 $$

USA.gov is the U.S. government's official web portal to all federal, state and local government web resources and services.